Weather History for St. Joseph, MO

Change the Weather History Date:

Friday, April 19, 2013

  Actual Average Record
Temperature  
Mean Temperature 41 °F 55 °F  
Max Temperature 52 °F 67 °F 91 °F (1987)
Min Temperature 30 °F 44 °F 20 °F (1976)
Degree Days  
Heating Degree Days 24 11  
Month to date heating degree days 337 249  
Since 1 July heating degree days 5290 5242  
Cooling Degree Days 0 1  
Month to date cooling degree days 0 12  
Year to date cooling degree days 0 14  
Growing Degree Days 0 (Base 50)    
Moisture  
Dew Point 24 °F    
Average Humidity 53    
Maximum Humidity 72    
Minimum Humidity 33    
Precipitation  
Precipitation 0.00 in 0.13 in 2.17 in (1929)
Month to date precipitation 2.91 2.04  
Year to date precipitation 6.00 5.78  
Sea Level Pressure  
Sea Level Pressure 29.99 in    
Wind  
Wind Speed 15 mph (NW)    
Max Wind Speed 26 mph    
Max Gust Speed 33 mph    
Visibility 10 miles    
Events      
T = Trace of Precipitation, MM = Missing Value Source: NWS Daily Summary

Daily Weather History Graph

Daily Weather History Graph

Search for Another Location

Airport:

Trip Planner

Search our weather history database for the weather conditions in past years. The results will help you decide how hot, cold, wet, or windy it might be!

Date:

Astronomy

Apr. 19, 2013 Rise Set
Actual Time 6:35 AM CDT 8:02 PM CDT
Civil Twilight 6:07 AM CDT 8:30 PM CDT
Nautical Twilight 5:33 AM CDT 9:04 PM CDT
Astronomical Twilight 4:57 AM CDT 9:40 PM CDT
Moon 1:48 PM CDT (4/19) 2:51 AM CDT (4/19)
Length of Visible Light 14h 22m
Length of Day
13h 26m
First Quarter, 62% of the Moon is Illuminated
Apr 19
First Quarter
Apr 25
Full
May 2
Last Quarter
May 9
New
May 17
First Quarter

Hourly Weather History & Observations

Time (CDT) Temp. Windchill Dew Point Humidity Pressure Visibility Wind Dir Wind Speed Gust Speed Precip Events Conditions
12:53 AM 35.1 °F 24.8 °F 25.0 °F 67% 29.93 in 10.0 mi NW 17.3 mph - N/A   Overcast
1:53 AM 34.0 °F 24.2 °F 25.0 °F 70% 29.92 in 10.0 mi WNW 15.0 mph - N/A   Overcast
2:53 AM 35.1 °F 25.9 °F 25.0 °F 67% 29.91 in 10.0 mi WNW 13.8 mph 24.2 mph N/A   Overcast
3:53 AM 34.0 °F 24.6 °F 25.0 °F 70% 29.91 in 10.0 mi WNW 13.8 mph - N/A   Overcast
4:53 AM 33.1 °F 23.0 °F 25.0 °F 72% 29.92 in 10.0 mi WNW 15.0 mph - N/A   Scattered Clouds
5:53 AM 32.0 °F 22.1 °F 24.1 °F 73% 29.93 in 10.0 mi WNW 13.8 mph 23.0 mph N/A   Clear
6:53 AM 30.9 °F 20.7 °F 23.0 °F 72% 29.94 in 10.0 mi WNW 13.8 mph 21.9 mph N/A   Clear
7:53 AM 33.1 °F 22.6 °F 23.0 °F 66% 29.96 in 10.0 mi West 16.1 mph 26.5 mph N/A   Clear
8:53 AM 36.0 °F 25.3 °F 21.9 °F 57% 29.96 in 10.0 mi WNW 19.6 mph 28.8 mph N/A   Clear
9:53 AM 39.0 °F 29.0 °F 23.0 °F 53% 29.98 in 10.0 mi West 20.7 mph 25.3 mph N/A   Clear
10:53 AM 42.1 °F 33.6 °F 21.9 °F 45% 29.99 in 10.0 mi WNW 18.4 mph - N/A   Clear
11:53 AM 45.0 °F 37.6 °F 21.9 °F 40% 29.99 in 10.0 mi WNW 17.3 mph 25.3 mph N/A   Partly Cloudy
12:53 PM 46.0 °F 38.3 °F 21.0 °F 37% 29.99 in 10.0 mi NW 20.7 mph 31.1 mph N/A   Clear
1:53 PM 48.9 °F - 21.0 °F 33% 29.98 in 10.0 mi West 23.0 mph 29.9 mph N/A   Partly Cloudy
2:53 PM 48.9 °F - 23.0 °F 36% 29.99 in 10.0 mi NW 18.4 mph 29.9 mph N/A   Scattered Clouds
3:53 PM 50.0 °F - 23.0 °F 35% 29.99 in 10.0 mi WNW 23.0 mph 33.4 mph N/A   Overcast
4:53 PM 48.9 °F - 24.1 °F 38% 30.00 in 10.0 mi NW 21.9 mph 28.8 mph N/A   Mostly Cloudy
5:53 PM 50.0 °F - 24.1 °F 36% 30.01 in 10.0 mi NW 18.4 mph 23.0 mph N/A   Mostly Cloudy
6:53 PM 48.9 °F - 24.1 °F 38% 30.03 in 10.0 mi NW 16.1 mph - N/A   Partly Cloudy
7:53 PM 45.0 °F 40.1 °F 25.0 °F 46% 30.05 in 10.0 mi NNW 9.2 mph - N/A   Clear
8:53 PM 39.0 °F 34.0 °F 26.1 °F 60% 30.08 in 10.0 mi North 6.9 mph - N/A   Clear
9:53 PM 39.0 °F 33.4 °F 25.0 °F 57% 30.11 in 10.0 mi NNW 8.1 mph - N/A   Clear
10:53 PM 33.1 °F 30.0 °F 24.1 °F 70% 30.12 in 10.0 mi North 3.5 mph - N/A   Clear
11:53 PM 32.0 °F 27.5 °F 23.0 °F 69% 30.13 in 10.0 mi North 4.6 mph - N/A   Clear